Location: Bukit Nyuki
(2.5885°N, 113.7476°E)
Time: 15:59:39
(UTC+00:00)

Cosmos 1408 - Pass Details

Date: 18 May 2021
Orbit: 468 x 490 km, 82.6° (Epoch: 20 June)

Event Time Altitude Azimuth Distance (km) Brightness Sun altitude
Exits shadow 20:47:38 45° 164° (SSE) 649 3.1 -21.0°
Maximum altitude 20:48:35 72° 94° (E) 496 2.6 -20.8°
Drops below altitude 10° 20:52:07 10° 9° (N) 1,618 5.6 -20.0°
Sets 20:54:11 0° 7° (N) 2,490 6.6 -19.5°
